Theta_e
321 323 323 324 325 324 325 325 324 324 323 322 321 323 323 323 324 320 312 319 322 330 328 320 318 317 314 312 316 309 301 297 300 301 302 306 303 305 308 308 308 312 312 316 325
320 322 323 323 324 324 324 325 324 323 323 323 322 322 322 323 315 310 320 330 332 332 318 314 312 316 307 308 313 305 298 300 305 304 304 306 304 304 304 304 305 310 319 322 324
318 320 322 323 323 323 324 324 323 323 323 323 322 321 322 319 304 302 323 326 332 332 319 317 316 315 305 306 308 305 300 304 306 306 307 306 303 308 304 301 306 307 312 320 320
317 318 320 321 322 323 324 323 323 323 323 323 322 322 321 312 282 305 326 327 328 327 317 312 312 308 303 301 307 300 308 307 308 308 306 305 308 306 305 305 309 310 313 320 320
315 317 318 319 321 322 323 323 323 323 323 322 322 322 313 301 300 310 322 328 322 320 313 309 308 307 301 302 303 303 305 308 309 307 307 308 306 306 308 311 312 312 316 320 321
313 315 316 317 319 321 322 322 322 322 322 322 322 321 304 293 309 309 310 323 320 315 311 311 309 310 305 303 301 302 305 305 304 306 306 306 305 307 308 312 312 311 312 318 320
312 313 314 316 317 319 321 322 323 322 321 322 322 314 304 297 305 306 313 317 317 315 310 312 312 308 307 303 306 303 299 301 300 302 303 306 301 303 308 310 310 310 310 311 317
310 311 312 314 316 318 319 321 321 321 321 321 321 311 299 309 310 307 306 308 318 316 314 313 313 308 305 306 302 299 297 291 298 301 302 302 294 299 306 307 307 307 306 307 308
309 310 311 312 314 316 317 318 319 321 321 320 312 307 298 313 304 306 306 305 315 315 314 316 311 306 303 296 292 293 286 291 294 301 300 299 294 298 303 303 303 303 303 304 305
307 309 310 312 311 314 316 317 317 317 318 315 311 300 303 299 303 304 305 306 311 309 308 306 304 297 298 296 283 286 287 290 291 295 298 296 295 298 300 299 300 301 302 302 303
306 307 309 311 311 313 313 308 301 300 307 301 301 300 301 302 304 301 303 303 305 304 297 302 296 291 294 298 293 292 289 290 290 296 294 294 295 298 299 297 297 299 300 301 304
305 306 308 309 310 312 310 300 299 303 296 305 303 303 303 302 295 297 304 297 299 295 297 297 291 294 296 297 295 292 289 288 291 295 293 292 292 296 297 297 298 299 299 300 302
305 306 307 308 309 309 303 303 306 305 295 297 302 301 301 301 294 295 300 299 297 294 295 289 291 297 294 293 294 294 292 287 288 292 293 290 291 293 296 296 298 299 300 301 301
305 306 306 307 302 304 300 307 309 305 287 289 296 300 302 300 293 299 300 300 297 292 294 293 295 294 293 291 294 288 296 292 291 289 283 290 281 287 291 294 296 298 298 300 301
304 305 307 307 301 297 303 306 308 301 274 291 294 305 302 294 293 294 300 300 293 292 293 289 291 291 291 292 295 289 296 294 291 288 286 287 284 286 290 291 293 295 297 299 300
304 305 306 302 301 302 307 306 303 283 274 286 294 293 293 293 292 294 295 301 297 292 293 290 294 294 293 295 297 296 293 291 289 288 282 286 285 286 289 290 293 296 298 298 298
304 305 303 301 296 303 306 300 282 276 286 283 286 292 291 287 290 291 289 290 288 283 285 288 289 292 296 291 294 295 291 283 281 281 280 286 286 288 291 292 294 296 297 296 297
304 305 303 302 302 303 301 288 276 281 282 287 290 290 286 289 289 289 287 286 291 286 282 281 278 289 292 293 290 292 291 282 272 276 279 284 283 288 294 297 298 297 296 297 297
304 297 297 300 303 301 290 280 279 281 286 285 288 285 285 289 289 287 286 285 289 288 281 281 281 290 292 293 295 290 288 290 282 277 276 280 285 292 294 294 294 294 294 294 295
294 293 293 300 301 292 282 281 281 287 288 289 282 286 281 285 285 285 285 288 287 291 288 284 279 286 291 293 293 291 292 286 286 276 273 278 280 283 287 290 292 291 292 294 294
293 285 292 301 298 286 277 278 279 287 287 287 285 285 285 285 285 284 284 286 290 290 290 285 282 282 287 287 287 290 287 286 285 284 276 273 279 288 289 291 290 291 293 293 293
288 281 292 299 283 284 279 280 286 286 289 286 289 287 286 287 285 285 283 286 292 291 286 287 282 278 283 286 292 292 289 288 281 279 281 280 279 289 290 292 291 291 293 293 294
285 284 296 293 276 278 278 281 284 284 285 287 286 289 288 287 284 286 284 290 291 290 289 289 282 273 279 284 286 286 288 289 286 282 280 279 281 289 289 288 289 290 290 291 291
285 279 283 288 280 279 274 276 278 287 286 286 284 288 288 287 286 285 284 289 292 292 296 294 283 282 277 280 285 284 287 288 288 282 282 282 284 285 286 287 288 288 290 291 291
286 281 277 277 280 279 277 279 280 280 285 286 286 288 286 283 283 283 286 287 291 293 293 291 283 279 281 281 285 285 286 287 286 287 282 285 284 287 288 288 290 291 291 287 287
283 282 284 280 283 278 280 280 280 282 284 283 282 287 288 285 286 282 284 286 286 289 289 290 282 282 278 282 282 278 285 286 287 288 287 285 283 289 288 290 284 283 284 284 283
286 286 285 284 281 279 279 280 282 285 286 287 286 287 287 288 290 291 291 291 289 288 287 287 283 282 279 281 281 274 280 283 285 285 288 284 288 289 285 282 280 279 280 279 279
Wind_Speed
19 18 17 17 17 17 16 15 14 12 11 8 8 6 5 6 8 3 6 8 4 6 6 6 6 7 5 4 4 2 5 2 5 6 3 2 2 1 1 4 1 2 3 3 7
20 19 18 16 16 17 17 17 15 14 13 11 8 6 4 4 2 10 7 11 11 6 3 3 3 6 4 3 3 4 4 8 4 3 3 1 2 4 3 1 1 1 2 3 9
19 20 20 18 16 16 17 17 16 16 15 12 9 7 4 1 3 9 17 24 14 7 3 1 2 2 1 1 2 2 4 4 2 2 2 2 1 1 6 4 5 6 3 6 5
18 20 21 20 17 17 17 18 17 16 16 13 12 9 6 2 9 1 2 18 19 5 3 2 1 5 5 5 3 2 5 3 1 1 0 2 1 2 3 5 6 4 3 8 10
17 17 20 21 19 18 17 17 18 17 17 15 13 10 5 4 8 5 11 7 8 5 7 6 4 5 6 5 3 4 3 4 4 2 3 1 4 5 7 8 4 4 5 9 11
18 17 18 20 20 20 18 17 17 18 18 17 15 13 4 11 6 7 7 2 7 8 6 6 5 4 3 5 7 2 4 4 1 3 3 4 4 6 6 7 8 5 7 9 9
19 17 16 19 19 20 19 17 17 18 19 18 17 8 8 12 4 4 5 2 5 8 7 4 1 3 2 2 2 2 5 6 3 3 6 5 8 13 6 4 8 9 7 8 10
21 17 14 15 18 19 19 18 17 19 20 19 17 7 9 8 16 8 4 5 3 4 6 4 4 2 1 3 4 4 3 2 3 8 5 9 19 7 7 7 11 11 9 8 9
20 19 18 17 16 19 19 18 16 17 20 18 9 7 7 6 6 11 7 4 5 3 3 4 6 4 2 4 1 4 3 9 7 9 5 8 9 4 6 5 9 8 9 9 8
22 20 20 19 17 18 18 17 13 13 14 10 4 6 6 7 6 4 7 7 3 6 4 4 4 4 5 9 11 7 5 6 8 3 7 7 12 9 7 6 9 9 9 9 9
23 22 22 21 21 20 15 6 5 6 15 9 9 2 3 6 6 6 7 7 3 6 9 8 12 24 21 15 8 7 5 9 3 4 1 7 14 16 11 6 10 14 9 10 14
25 24 23 22 22 21 14 14 16 3 12 22 8 21 5 6 5 4 14 10 9 14 8 8 26 8 8 7 6 6 6 8 3 4 3 7 17 17 14 12 13 13 10 10 8
25 25 24 23 21 17 17 22 5 3 3 21 15 20 16 8 8 17 20 9 18 19 20 14 7 15 14 11 15 15 19 4 3 1 3 5 16 14 9 6 7 7 9 7 11
23 24 21 22 13 13 18 19 8 5 9 7 18 9 19 8 5 7 10 15 10 26 21 15 9 13 12 17 16 19 8 7 6 4 7 4 12 5 4 7 6 7 8 10 11
23 23 23 22 3 16 15 15 13 4 17 12 11 10 20 18 12 10 7 6 16 9 12 11 10 9 15 17 13 11 10 13 6 5 3 10 5 5 1 6 7 7 9 11 10
22 24 22 10 5 6 11 18 13 12 16 10 11 14 20 15 6 6 12 4 4 4 8 6 1 9 10 8 16 7 6 4 5 6 15 26 9 13 10 6 6 7 8 7 6
20 21 20 5 5 7 14 15 14 16 9 10 9 18 25 11 14 14 21 20 15 9 11 5 14 3 4 7 5 10 11 6 9 12 18 8 10 23 7 7 7 9 8 2 4
19 17 13 5 6 7 10 14 17 17 9 2 12 25 30 22 11 18 24 21 16 9 7 13 8 19 5 10 9 22 18 7 7 6 8 5 11 13 9 10 9 8 6 5 5
13 2 4 6 6 3 9 17 13 6 10 11 12 22 19 19 10 16 21 28 27 22 12 15 15 6 7 5 15 12 18 10 4 1 3 5 6 10 9 9 4 3 6 6 5
3 3 4 11 11 3 5 15 3 1 8 8 17 13 17 23 19 18 21 24 19 25 5 6 5 6 14 3 7 11 7 13 7 7 6 4 3 8 3 3 6 7 8 6 4
3 2 3 13 10 4 3 5 3 7 4 15 17 15 15 13 14 19 26 14 24 27 9 7 4 3 10 13 16 9 9 4 2 6 5 2 7 8 9 8 11 9 8 7 6
3 3 3 9 6 1 3 6 2 2 5 11 20 4 19 25 20 21 20 17 26 24 24 8 6 4 15 3 8 16 19 19 7 9 4 2 7 2 5 7 8 8 6 4 2
4 1 2 3 5 6 2 2 3 5 9 5 9 10 6 19 14 15 9 14 24 24 24 13 5 4 3 4 2 9 8 15 4 3 7 9 8 4 9 7 7 9 5 2 0
4 4 2 4 2 8 6 7 6 6 6 5 10 8 10 18 4 15 7 13 20 19 18 16 4 16 15 8 8 14 16 12 16 11 11 12 16 3 3 7 6 5 4 2 8
3 3 5 6 10 11 7 9 14 8 5 4 9 17 11 7 5 8 6 6 12 20 17 14 18 3 1 1 5 11 20 18 16 24 14 22 14 9 8 7 8 6 4 12 13
5 4 2 3 10 14 15 16 16 11 6 6 16 18 21 18 12 12 10 12 13 16 20 8 9 6 1 2 6 1 12 16 22 19 16 7 7 5 4 5 10 9 10 11 10
3 1 3 6 8 16 15 19 16 11 7 11 12 20 16 17 15 19 13 16 12 18 22 16 7 10 16 3 5 7 12 10 7 5 13 19 10 6 5 8 6 8 10 10 10
Wind_Direction
262 255 249 238 232 226 225 224 222 216 212 216 222 225 261 301 322 298 248 235 239 298 310 308 348 354 10 338 10 108 70 195 219 163 214 299 99 20 94 114 61 97 145 282 145
263 256 246 240 237 231 228 221 218 216 215 210 215 223 240 297 280 253 240 261 275 275 308 200 268 2 357 328 348 89 133 207 224 192 188 324 172 156 113 89 253 17 69 39 130
262 256 248 239 235 236 225 227 216 213 211 205 207 212 218 251 323 250 208 223 240 249 248 87 101 148 214 35 229 154 203 215 237 202 178 234 174 266 152 211 201 175 189 148 149
268 259 248 237 233 234 235 221 218 209 205 202 197 197 184 191 225 241 267 220 222 194 208 154 144 152 180 200 204 196 228 193 267 209 141 202 316 221 213 231 163 216 245 166 171
272 266 254 243 234 229 231 231 216 207 204 202 192 184 142 226 247 287 345 279 192 172 186 172 173 163 181 191 185 216 221 192 218 204 285 107 237 257 245 248 240 247 172 196 195
270 264 261 246 238 233 226 226 220 210 201 198 189 176 152 228 240 325 297 128 162 156 172 151 202 208 207 204 170 225 218 237 254 228 246 216 255 162 264 245 263 179 210 215 209
261 264 262 250 240 234 226 224 216 211 203 200 192 174 228 219 215 355 359 273 177 158 152 188 133 205 148 336 257 229 303 312 197 214 229 168 275 239 199 199 249 267 254 238 227
257 258 248 256 244 234 229 223 215 211 201 199 193 187 235 200 238 276 339 301 175 160 154 176 114 17 194 312 14 175 166 241 218 168 238 146 258 263 241 204 247 259 261 249 247
257 248 245 242 251 233 229 224 215 214 202 192 180 189 240 174 174 222 183 265 145 102 137 130 124 189 167 116 14 239 187 231 294 204 184 187 267 244 259 203 246 266 273 266 274
248 250 248 236 242 238 228 219 222 212 206 199 161 176 217 191 144 163 164 203 172 120 95 146 168 189 189 180 211 203 176 221 210 235 193 235 258 271 273 296 264 257 267 276 271
248 248 240 233 229 233 220 204 176 219 210 203 180 169 89 157 119 169 152 145 209 147 178 180 190 212 200 206 196 171 191 211 205 232 258 237 258 264 269 255 261 266 250 249 260
244 243 238 232 230 221 212 210 206 144 207 221 171 202 98 158 127 183 146 163 185 199 132 184 221 184 174 180 199 188 211 220 287 241 227 280 268 271 264 253 244 249 255 239 251
240 239 233 229 233 221 211 215 197 105 242 204 209 188 187 178 186 197 173 165 192 197 195 202 226 162 177 187 203 220 223 146 186 151 259 343 284 256 252 241 234 239 238 256 235
237 233 217 231 240 211 215 204 150 104 226 209 192 216 185 163 223 165 192 161 177 205 195 225 227 197 187 207 193 221 173 160 182 145 243 142 276 241 241 260 236 244 242 246 254
232 233 216 201 274 202 207 170 159 111 227 182 175 149 167 171 136 219 170 160 183 178 181 207 162 175 196 209 172 225 166 198 185 218 10 258 259 290 277 267 272 262 249 250 258
228 227 213 205 232 239 180 163 165 214 214 170 160 163 167 178 189 126 162 114 128 179 225 206 309 172 200 179 183 134 88 108 144 179 234 239 205 261 232 223 237 231 246 266 322
226 225 208 124 241 175 172 165 197 219 160 156 165 172 180 165 174 153 169 189 184 171 210 210 240 277 169 138 148 190 160 194 208 214 235 163 196 249 243 240 217 223 252 41 33
216 211 194 188 206 163 189 190 217 190 184 227 165 177 188 168 178 170 167 189 205 194 179 195 219 209 192 201 186 201 205 184 202 207 222 152 208 242 228 249 250 253 218 145 125
202 165 161 185 181 139 219 210 199 129 146 149 172 177 188 182 135 170 177 189 194 191 178 189 225 185 173 146 170 192 219 195 126 75 79 202 281 308 244 252 232 229 138 131 103
114 149 207 177 163 114 234 207 327 236 163 192 192 186 175 176 168 173 178 194 192 198 178 204 193 210 185 113 218 180 146 208 218 182 209 249 259 230 255 231 130 111 116 110 98
101 125 240 150 157 215 198 201 178 230 118 213 206 192 202 177 178 186 183 184 191 186 165 154 130 247 149 202 194 186 211 211 178 155 187 206 251 220 203 173 160 150 146 143 119
107 200 242 146 200 126 132 167 238 293 123 243 202 182 181 183 192 190 195 197 188 172 187 182 141 161 206 272 182 209 210 207 207 213 225 136 265 323 215 150 135 147 152 151 104
158 156 173 168 198 191 179 166 205 190 248 209 215 163 244 176 184 190 192 188 180 173 176 172 194 91 24 358 277 202 207 208 167 81 197 211 247 32 119 129 151 146 163 198 235
149 179 252 201 185 180 148 201 202 192 230 271 315 142 185 174 79 180 140 175 179 185 185 165 147 201 206 221 141 205 204 198 203 215 215 210 236 98 118 132 157 168 187 183 54
169 226 198 176 199 207 178 184 197 196 213 161 272 212 158 151 116 157 127 108 176 195 187 183 211 143 242 106 198 202 212 205 202 220 200 228 227 192 189 171 192 216 44 64 53
161 174 251 141 172 191 209 218 196 196 154 202 231 248 177 181 193 176 134 165 169 192 190 160 211 155 196 69 79 105 208 205 212 223 231 268 253 179 173 152 70 64 74 69 56
188 215 132 183 175 186 199 218 209 176 203 245 215 223 179 187 180 176 165 167 161 174 185 182 153 175 219 139 78 291 208 196 194 186 204 231 231 165 114 99 62 61 60 55 37